| time (UTC) | temp F | wind direction | speed knots | gust knots | rain 1hr in | rain 24hr in | rain mn in | humidity % | barometer mb |
| 20260505093123 | 57 | 68 | 0.0 | 0.0 | 0.00 | 0.00 | 0.00 | 99 | 1010.3 |
| 20260505092123 | 57 | 68 | 0.0 | 0.0 | 0.00 | 0.00 | 0.00 | 99 | 1010.2 |
| 20260505091123 | 57 | 113 | 0.0 | 0.0 | 0.00 | 0.00 | 0.00 | 99 | 1010.0 |
| 20260505090123 | 57 | 90 | 0.0 | 0.0 | 0.00 | 0.00 | 0.00 | 99 | 1010.0 |
| 20260505085123 | 57 | 68 | 0.0 | 0.0 | 0.00 | 0.00 | 0.00 | 99 | 1010.0 |
| 20260505084144 | 57 | 90 | 0.0 | 0.0 | 0.00 | 0.00 | 0.00 | 99 | 1009.8 |
| 20260505083123 | 58 | 113 | 0.0 | 0.0 | 0.00 | 0.00 | 0.00 | 99 | 1009.7 |
| 20260505082123 | 58 | 90 | 0.0 | 0.0 | 0.00 | 0.00 | 0.00 | 98 | 1009.8 |
| 20260505081123 | 58 | 180 | 0.0 | 0.0 | 0.00 | 0.00 | 0.00 | 98 | 1009.7 |
| 20260505080144 | 58 | 113 | 0.0 | 0.0 | 0.00 | 0.00 | 0.00 | 99 | 1009.7 |
| 20260505075123 | 59 | 113 | 0.0 | 0.0 | 0.00 | 0.00 | 0.00 | 97 | 1009.7 |
| 20260505074123 | 59 | 113 | 0.0 | 0.0 | 0.00 | 0.00 | 0.00 | 97 | 1009.5 |
| 20260505073123 | 59 | 68 | 0.0 | 0.0 | 0.00 | 0.00 | 0.00 | 94 | 1009.2 |
| 20260505072124 | 60 | 90 | 0.0 | 0.0 | 0.00 | 0.00 | 0.00 | 94 | 1009.1 |
| 20260505071123 | 60 | 90 | 0.0 | 0.0 | 0.00 | 0.00 | 0.00 | 93 | 1009.0 |
| 20260505070123 | 61 | 158 | 0.0 | 0.0 | 0.00 | 0.00 | 0.00 | 92 | 1008.8 |
| 20260505065144 | 61 | 113 | 0.0 | 0.0 | 0.00 | 0.00 | 0.00 | 88 | 1008.7 |
| 20260505064125 | 62 | 68 | 0.0 | 0.0 | 0.00 | 0.00 | 0.00 | 86 | 1008.7 |
| 20260505063123 | 62 | 90 | 0.0 | 0.0 | 0.00 | 0.00 | 0.00 | 85 | 1008.5 |
| 20260505062125 | 63 | 113 | 0.0 | 0.0 | 0.00 | 0.00 | 0.00 | 82 | 1008.3 |
| 20260505061123 | 64 | 90 | 0.0 | 0.0 | 0.00 | 0.00 | 0.00 | 80 | 1008.5 |
| 20260505060123 | 64 | 113 | 0.0 | 0.0 | 0.00 | 0.00 | 0.00 | 79 | 1008.3 |
| 20260505055125 | 64 | 113 | 0.0 | 0.0 | 0.00 | 0.00 | 0.00 | 76 | 1008.3 |
| 20260505054123 | 64 | 113 | 0.0 | 0.0 | 0.00 | 0.00 | 0.00 | 75 | 1008.3 |
| 20260505053125 | 64 | 90 | 0.0 | 0.0 | 0.00 | 0.00 | 0.00 | 73 | 1008.2 |
| 20260505052123 | 65 | 45 | 0.0 | 0.0 | 0.00 | 0.00 | 0.00 | 70 | 1008.1 |
| 20260505051146 | 65 | 68 | 0.0 | 0.0 | 0.00 | 0.00 | 0.00 | 70 | 1008.0 |
| 20260505050123 | 66 | 23 | 0.0 | 0.0 | 0.00 | 0.00 | 0.00 | 71 | 1007.8 |
| 20260505041123 | 69 | 113 | 0.0 | 0.0 | 0.00 | 0.00 | 0.00 | 64 | 1007.6 |
| 20260505040125 | 70 | 45 | 0.0 | 0.0 | 0.00 | 0.00 | 0.00 | 64 | 1007.5 |
| 20260505035123 | 71 | 90 | 0.0 | 0.0 | 0.00 | 0.00 | 0.00 | 64 | 1007.5 |
| 20260505034144 | 72 | 135 | 0.0 | 0.0 | 0.00 | 0.00 | 0.00 | 63 | 1007.3 |
| 20260505033123 | 73 | 135 | 0.0 | 0.0 | 0.00 | 0.00 | 0.00 | 61 | 1007.3 |
| 20260505032123 | 74 | 113 | 0.0 | 0.0 | 0.00 | 0.00 | 0.00 | 59 | 1007.2 |
| 20260505031125 | 75 | 68 | 0.0 | 0.0 | 0.00 | 0.00 | 0.00 | 56 | 1007.2 |
| 20260505030123 | 76 | 45 | 0.0 | 0.0 | 0.00 | 0.00 | 0.00 | 56 | 1007.1 |
| 20260505025125 | 77 | 90 | 0.0 | 0.0 | 0.00 | 0.00 | 0.00 | 56 | 1007.1 |
| 20260505024123 | 77 | 113 | 0.0 | 1.7 | 0.00 | 0.00 | 0.00 | 54 | 1007.1 |
| 20260505023144 | 80 | 113 | 0.0 | 0.0 | 0.00 | 0.00 | 0.00 | 49 | 1007.1 |
| 20260505022123 | 80 | 180 | 0.0 | 0.0 | 0.00 | 0.00 | 0.00 | 48 | 1007.2 |
| 20260505021123 | 79 | 180 | 0.0 | 0.0 | 0.00 | 0.00 | 0.00 | 48 | 1007.2 |
| 20260505020145 | 80 | 135 | 0.0 | 0.0 | 0.00 | 0.00 | 0.00 | 47 | 1007.3 |
| 20260505015144 | 81 | 68 | 0.0 | 0.0 | 0.00 | 0.00 | 0.00 | 46 | 1007.3 |
| 20260505014146 | 82 | 90 | 0.0 | 0.0 | 0.00 | 0.00 | 0.00 | 43 | 1007.3 |
| 20260505013123 | 82 | 180 | 0.0 | 1.7 | 0.00 | 0.00 | 0.00 | 43 | 1007.3 |
| 20260505012126 | 82 | 113 | 0.0 | 0.0 | 0.00 | 0.00 | 0.00 | 44 | 1007.3 |
| 20260505011144 | 82 | 180 | 0.0 | 0.0 | 0.00 | 0.00 | 0.00 | 44 | 1007.5 |
| 20260505010144 | 83 | 338 | 0.0 | 0.0 | 0.00 | 0.00 | 0.00 | 44 | 1007.6 |
| 20260505005123 | 83 | 180 | 0.0 | 0.0 | 0.00 | 0.00 | 0.00 | 44 | 1007.6 |
| 20260505004123 | 84 | 270 | 0.0 | 0.0 | 0.00 | 0.00 | 0.00 | 43 | 1007.5 |
| 20260505003124 | 84 | 180 | 0.0 | 1.7 | 0.00 | 0.00 | 0.00 | 43 | 1007.6 |
| 20260505002123 | 84 | 158 | 0.0 | 0.0 | 0.00 | 0.00 | 0.00 | 44 | 1007.3 |
| 20260505001124 | 84 | 180 | 0.0 | 0.0 | 0.00 | 0.00 | 0.00 | 44 | 1007.6 |
| 20260505000123 | 84 | 203 | 0.0 | 0.0 | 0.00 | 0.00 | 0.00 | 45 | 1007.7 |
| 20260504235123 | 85 | 180 | 0.0 | 0.0 | 0.00 | 0.00 | 0.00 | 45 | 1007.7 |
| 20260504234123 | 85 | 68 | 0.0 | 0.0 | 0.00 | 0.00 | 0.00 | 44 | 1007.8 |
| 20260504233123 | 84 | 270 | 0.0 | 0.0 | 0.00 | 0.00 | 0.00 | 45 | 1007.8 |
| 20260504232145 | 85 | 293 | 0.0 | 0.0 | 0.00 | 0.00 | 0.00 | 44 | 1007.8 |
| 20260504231123 | 84 | 180 | 0.0 | 0.0 | 0.00 | 0.00 | 0.00 | 44 | 1007.8 |
| 20260504230124 | 84 | 202 | 0.0 | 1.7 | 0.00 | 0.00 | 0.00 | 44 | 1008.1 |
| 20260504225144 | 84 | 203 | 0.0 | 0.0 | 0.00 | 0.00 | 0.00 | 45 | 1008.1 |
| 20260504224124 | 82 | 180 | 0.0 | 0.0 | 0.00 | 0.00 | 0.00 | 46 | 1008.2 |
| 20260504223123 | 82 | 180 | 0.0 | 0.0 | 0.00 | 0.00 | 0.00 | 47 | 1008.2 |
| 20260504222123 | 82 | 180 | 0.0 | 0.0 | 0.00 | 0.00 | 0.00 | 47 | 1008.3 |
| 20260504221124 | 81 | 113 | 0.0 | 1.7 | 0.00 | 0.00 | 0.00 | 48 | 1008.3 |
| 20260504220123 | 80 | 191 | 0.0 | 1.7 | 0.00 | 0.00 | 0.00 | 52 | 1008.3 |
| 20260504215124 | 82 | 180 | 0.0 | 0.0 | 0.00 | 0.00 | 0.00 | 49 | 1008.3 |
| 20260504214123 | 82 | 169 | 0.0 | 1.7 | 0.00 | 0.00 | 0.00 | 49 | 1008.5 |
| 20260504213123 | 80 | 174 | 0.0 | 5.2 | 0.00 | 0.00 | 0.00 | 50 | 1008.5 |
| 20260504212123 | 82 | 169 | 0.0 | 1.7 | 0.00 | 0.00 | 0.00 | 50 | 1008.7 |
| 20260504211123 | 81 | 150 | 0.0 | 1.7 | 0.00 | 0.00 | 0.00 | 49 | 1008.8 |
| 20260504210124 | 81 | 180 | 0.0 | 3.5 | 0.00 | 0.00 | 0.00 | 49 | 1008.8 |
| 20260504205123 | 81 | 192 | 0.0 | 2.6 | 0.00 | 0.00 | 0.00 | 48 | 1008.8 |
| 20260504204124 | 80 | 178 | 0.0 | 2.6 | 0.00 | 0.00 | 0.00 | 48 | 1009.0 |
| 20260504203123 | 82 | 113 | 0.0 | 0.0 | 0.00 | 0.00 | 0.00 | 47 | 1008.8 |
| 20260504202124 | 81 | 225 | 0.0 | 0.0 | 0.00 | 0.00 | 0.00 | 46 | 1009.0 |
| 20260504201123 | 80 | 187 | 0.0 | 1.7 | 0.00 | 0.00 | 0.00 | 46 | 1009.0 |
| 20260504200123 | 79 | 180 | 0.0 | 3.5 | 0.00 | 0.00 | 0.00 | 47 | 1009.1 |
| 20260504195123 | 79 | 187 | 0.0 | 1.7 | 0.00 | 0.00 | 0.00 | 47 | 1009.1 |
| 20260504194123 | 80 | 158 | 0.0 | 0.0 | 0.00 | 0.00 | 0.00 | 47 | 1009.3 |
| 20260504193124 | 78 | 180 | 0.0 | 0.0 | 0.00 | 0.00 | 0.00 | 48 | 1009.2 |
| 20260504192123 | 78 | 180 | 0.0 | 2.6 | 0.00 | 0.00 | 0.00 | 47 | 1009.3 |
| 20260504191145 | 79 | 180 | 0.0 | 0.0 | 0.00 | 0.00 | 0.00 | 48 | 1009.3 |
| 20260504190123 | 78 | 203 | 0.0 | 0.0 | 0.00 | 0.00 | 0.00 | 50 | 1009.3 |
| 20260504185123 | 79 | 158 | 0.0 | 4.3 | 0.00 | 0.00 | 0.00 | 50 | 1009.3 |
| 20260504184123 | 79 | 270 | 0.0 | 0.0 | 0.00 | 0.00 | 0.00 | 49 | 1009.5 |
| 20260504183122 | 78 | 158 | 0.0 | 0.0 | 0.00 | 0.00 | 0.00 | 50 | 1009.3 |
| 20260504182124 | 77 | 180 | 0.0 | 1.7 | 0.00 | 0.00 | 0.00 | 50 | 1009.5 |
| 20260504181144 | 77 | 158 | 0.0 | 0.0 | 0.00 | 0.00 | 0.00 | 52 | 1009.5 |
| 20260504180124 | 77 | 180 | 0.0 | 0.0 | 0.00 | 0.00 | 0.00 | 58 | 1009.5 |
| 20260504175122 | 76 | 158 | 0.0 | 0.0 | 0.00 | 0.00 | 0.00 | 59 | 1009.5 |
| 20260504174122 | 76 | 158 | 0.0 | 0.0 | 0.00 | 0.00 | 0.00 | 60 | 1009.5 |
| 20260504173144 | 75 | 45 | 0.0 | 0.0 | 0.00 | 0.00 | 0.00 | 60 | 1009.5 |
| 20260504172122 | 75 | 293 | 0.0 | 0.0 | 0.00 | 0.00 | 0.00 | 63 | 1009.5 |
| 20260504171124 | 73 | 45 | 0.0 | 0.0 | 0.00 | 0.00 | 0.00 | 65 | 1009.5 |
| 20260504170122 | 73 | 158 | 0.0 | 0.0 | 0.00 | 0.00 | 0.00 | 65 | 1009.7 |
| 20260504160124 | 66 | 113 | 0.0 | 0.0 | 0.00 | 0.00 | 0.00 | 77 | 1009.7 |
| 20260504151123 | 62 | 203 | 0.0 | 0.0 | 0.00 | 0.00 | 0.00 | 82 | 1009.6 |
| 20260504150123 | 61 | 203 | 0.0 | 0.0 | 0.00 | 0.00 | 0.00 | 83 | 1009.5 |
| 20260504141144 | 57 | 23 | 0.0 | 0.0 | 0.00 | 0.00 | 0.00 | 88 | 1009.3 |
| 20260504140123 | 57 | 23 | 0.0 | 0.0 | 0.00 | 0.00 | 0.00 | 89 | 1009.3 |
| 20260504130123 | 57 | 113 | 0.0 | 0.0 | 0.00 | 0.00 | 0.00 | 83 | 1008.8 |
| 20260504120122 | 59 | 23 | 0.0 | 0.0 | 0.00 | 0.00 | 0.00 | 75 | 1008.8 |
| 20260504110124 | 59 | 23 | 0.0 | 0.0 | 0.00 | 0.00 | 0.00 | 78 | 1008.8 |
| 20260504100122 | 59 | 360 | 0.0 | 0.0 | 0.00 | 0.00 | 0.00 | 78 | 1008.7 |